[[{"header":{"parameterUnit":"m.s-1","parameterCategory":1,"la1":30.2991,"la2":30.254,"lo1":-89.0895,"lo2":-89.0444,"dy":0.0017,"dx":0.0017,"nx":28,"ny":28,"refTime":"2025-09-02T21:00:00:Z","depth":0,"parameterNumber":2,"parameterNumberName":"U-component_of_WINDS"},"data":[0,0,0,0,0,0,0,0,0,0,0,0,0,0,0,0,0,0,0,0,0,0,0,0,0,0,0,0,0,0,0,0,0,0,0,0,0,0,0,0,0,0,0,0,0,0,0,0,0,0,0,0,0,0,0,0,0,0,-1.2579,-1.2579,0,-1.2558,-1.2558,-1.2558,-1.2513,-1.2513,-1.2512,-1.2511,-1.2489,-1.2489,-1.249,0,0,0,0,0,0,0,0,0,0,0,0,0,-1.2583,-1.2583,-1.2579,-1.2579,-1.2579,-1.2558,-1.2558,-1.2558,-1.2514,-1.2512,-1.2511,-1.251,-1.2489,-1.2489,-1.249,0,0,0,0,0,0,0,0,0,0,0,0,0,-1.2574,-1.2583,-1.2579,-1.2554,-1.2552,-1.2558,-1.2558,-1.2558,-1.2514,-1.2512,-1.2511,-1.251,-1.2489,-1.2489,-1.249,-1.2519,0,0,-1.2491,-1.2491,0,0,0,0,0,0,0,0,-1.2574,-1.2573,-1.2558,-1.2556,-1.2553,-1.2537,-1.2551,-1.2545,-1.2514,-1.2528,-1.2511,-1.2509,-1.2506,-1.2505,-1.2504,-1.2518,-1.2517,-1.2491,-1.2491,-1.2491,-1.2491,0,0,0,0,0,0,0,-1.2575,-1.2574,-1.2571,-1.2558,-1.2555,-1.2545,-1.2542,-1.255,-1.2525,-1.2527,-1.2524,-1.2522,-1.2505,-1.2504,-1.2503,-1.2517,-1.2491,-1.2491,-1.2491,-1.2492,-1.2556,-1.2558,0,0,0,0,0,0,-1.2579,-1.2575,-1.2571,-1.257,-1.2561,-1.2546,-1.2543,-1.2544,-1.2525,-1.2521,-1.2523,-1.252,-1.2504,-1.2503,-1.2502,-1.2537,-1.2491,-1.2492,-1.2492,-1.2555,-1.2557,-1.2558,0,0,0,0,0,0,-1.2579,-1.2579,-1.2572,-1.2572,-1.257,-1.2547,-1.2549,-1.2544,-1.2543,-1.2522,-1.2517,-1.2527,-1.2503,-1.2502,-1.2516,-1.2535,-1.2492,-1.2492,-1.2553,-1.2556,-1.2558,-1.2605,0,0,0,0,0,0,-1.2579,-1.2579,-1.259,-1.2572,-1.257,-1.2586,-1.255,-1.2544,-1.2544,-1.254,-1.2524,-1.252,-1.2502,-1.2515,-1.2516,-1.2535,-1.2493,-1.2551,-1.2554,-1.2557,-1.2602,-1.2609,-1.2615,0,0,0,0,0,-1.258,-1.2603,-1.259,-1.259,-1.2582,-1.2587,-1.2586,-1.2564,-1.2546,-1.2556,-1.2543,-1.2521,-1.2533,-1.2517,-1.2518,-1.2537,-1.255,-1.2553,-1.2557,-1.2599,-1.2608,-1.2615,0,0,0,0,0,0,-1.2622,-1.26,-1.2586,-1.2604,-1.2598,-1.2579,-1.2592,-1.2573,-1.2572,-1.2568,-1.2541,-1.2538,-1.2556,-1.2548,-1.253,-1.2566,-1.2538,-1.2542,-1.257,-1.2578,-1.2585,-1.2586,-1.2493,0,0,0,0,0,-1.2634,-1.2639,-1.262,-1.2638,-1.2636,-1.2615,-1.2616,-1.26,-1.2592,-1.2589,-1.2577,-1.257,-1.2573,-1.2575,-1.2576,-1.2601,-1.2598,-1.2615,-1.2621,-1.2627,-1.263,-1.2645,-1.2653,-1.2569,-1.2569,-1.2569,0,0,-1.2658,-1.2647,-1.2651,-1.2646,-1.264,-1.2646,-1.2612,-1.262,-1.2625,-1.259,-1.2603,-1.2594,-1.2585,-1.2606,-1.2614,-1.2599,-1.2653,-1.2631,-1.2636,-1.2636,-1.2649,-1.2657,-1.2664,-1.2572,-1.2571,-1.2571,0,0,-1.2705,-1.2697,-1.2712,-1.2706,-1.2697,-1.2683,-1.2687,-1.2672,-1.2665,-1.2678,-1.2652,-1.2659,-1.2663,-1.2659,-1.2657,-1.2707,-1.2687,-1.2708,-1.2742,-1.2756,-1.2763,-1.2769,-1.2788,-1.2795,-1.2711,-1.2711,-1.2711,0,-1.2736,-1.2745,-1.2722,-1.2732,-1.2732,-1.2701,-1.2718,-1.2713,-1.2705,-1.2706,-1.269,-1.2697,-1.2689,-1.2709,-1.2721,-1.272,-1.2725,-1.2709,-1.2764,-1.2769,-1.2774,-1.2792,-1.2799,-1.2714,-1.2714,-1.2713,-1.2713,0,-1.2784,-1.2791,-1.2804,-1.2798,-1.2799,-1.2812,-1.2793,-1.2796,-1.2782,-1.277,-1.2785,-1.2775,-1.2774,-1.2778,-1.2762,-1.2796,-1.2788,-1.2769,-1.274,-1.2785,-1.2802,-1.2808,-1.2718,-1.2717,-1.2716,-1.2715,0,0,-1.2855,-1.2838,-1.2844,-1.2842,-1.2831,-1.2836,-1.2849,-1.2849,-1.2854,-1.285,-1.2861,-1.2867,-1.285,-1.2848,-1.2833,-1.2846,-1.2888,-1.2825,-1.2824,-1.2838,-1.2927,-1.2942,-1.295,-1.2875,-1.2876,-1.2877,-1.2928,0,-1.29,-1.2921,-1.2902,-1.2927,-1.2934,-1.2907,-1.2918,-1.2914,-1.2904,-1.2909,-1.2899,-1.2904,-1.288,-1.2879,-1.2891,-1.288,-1.2905,-1.2876,-1.2886,-1.2886,-1.2889,-1.2958,-1.2973,-1.3022,-1.2934,-1.2935,-1.2936,0,-1.2955,-1.2955,-1.298,-1.297,-1.2972,-1.2983,-1.2983,-1.2988,-1.2983,-1.2975,-1.2976,-1.2957,-1.2971,-1.2944,-1.2963,-1.2944,-1.2947,-1.2942,-1.2944,-1.2944,-1.2914,-1.2961,-1.3036,-1.3044,-1.2945,-1.2945,-1.2944,0,-1.3006,-1.3012,-1.3029,-1.3028,-1.3016,-1.3024,-1.302,-1.3013,-1.3016,-1.3016,-1.3018,-1.302,-1.3021,-1.3024,-1.3008,-1.2989,-1.303,-1.3001,-1.3025,-1.3025,-1.3034,-1.3034,-1.3112,-1.3036,-1.3035,-1.3035,-1.3035,0,-1.3058,-1.3075,-1.3052,-1.3062,-1.3081,-1.3061,-1.308,-1.3073,-1.3068,-1.3078,-1.3054,-1.3064,-1.3041,-1.3049,-1.3037,-1.3055,-1.3056,-1.3051,-1.3047,-1.3053,-1.3054,-1.3055,-1.3051,-1.3037,-1.3037,-1.3036,-1.3036,0,-1.3118,-1.3103,-1.312,-1.3108,-1.3106,-1.312,-1.3111,-1.312,-1.311,-1.3123,-1.3125,-1.3109,-1.3117,-1.3101,-1.3107,-1.3098,-1.3126,-1.3116,-1.3127,-1.3125,-1.315,-1.3148,-1.3232,-1.3242,-1.3159,-1.316,-1.316,0,-1.3153,-1.3165,-1.3156,-1.316,-1.3157,-1.3165,-1.3168,-1.3149,-1.3153,-1.315,-1.3161,-1.3167,-1.3171,-1.3186,-1.3175,-1.318,-1.3172,-1.3201,-1.3172,-1.3179,-1.3174,-1.3173,-1.3175,-1.3207,-1.3208,-1.3208,-1.3209,0,-1.3216,-1.3208,-1.3213,-1.3216,-1.3221,-1.3222,-1.3222,-1.3227,-1.3208,-1.3214,-1.3222,-1.3226,-1.3233,-1.324,-1.3243,-1.3239,-1.3222,-1.3218,-1.3224,-1.323,-1.3237,-1.3235,-1.3144,-1.3216,-1.3216,-1.3215,-1.3215,-1.3214,-1.3265,-1.3276,-1.3271,-1.3278,-1.3276,-1.3277,-1.3287,-1.3279,-1.3285,-1.329,-1.3278,-1.329,-1.3287,-1.329,-1.3289,-1.3298,-1.3285,-1.3294,-1.3296,-1.3299,-1.3303,-1.3235,-1.3299,-1.3298,-1.3298,-1.3298,-1.3298,0,-1.3328,-1.3324,-1.3331,-1.3332,-1.3338,-1.3322,-1.3321,-1.3328,-1.3338,-1.3337,-1.3342,-1.3354,-1.3361,-1.3353,-1.3359,-1.3369,-1.3361,-1.3371,-1.337,-1.337,-1.3314,-1.3308,-1.3378,-1.3378,-1.3377,-1.3377,-1.3377,-1.3377,-1.3361,-1.338,-1.3372,-1.339,-1.3387,-1.3398,-1.34,-1.3401,-1.3401,-1.3414,-1.3421,-1.3415,-1.3412,-1.3418,-1.3425,-1.3423,-1.3427,-1.344,-1.3435,-1.3382,-1.3374,-1.3367,-1.3361,-1.3441,-1.3441,-1.3491,-1.3491,-1.3492]},{"header":{"parameterUnit":"m.s-1","parameterCategory":1,"la1":30.2991,"la2":30.254,"lo1":-89.0895,"lo2":-89.0444,"dy":0.0017,"dx":0.0017,"nx":28,"ny":28,"refTime":"2025-09-02T21:00:00:Z","depth":0,"parameterNumber":3,"parameterNumberName":"V-component_of_WINDS"},"data":[0,0,0,0,0,0,0,0,0,0,0,0,0,0,0,0,0,0,0,0,0,0,0,0,0,0,0,0,0,0,0,0,0,0,0,0,0,0,0,0,0,0,0,0,0,0,0,0,0,0,0,0,0,0,0,0,0,0,3.5415,3.5414,0,3.5369,3.5368,3.5368,3.5407,3.5408,3.541,3.5411,3.5357,3.5354,3.5351,0,0,0,0,0,0,0,0,0,0,0,0,0,3.5531,3.5529,3.5415,3.5414,3.5414,3.5369,3.5368,3.5368,3.5406,3.5408,3.541,3.5412,3.5358,3.5355,3.5351,0,0,0,0,0,0,0,0,0,0,0,0,0,3.5482,3.5528,3.5415,3.5428,3.5429,3.5369,3.5368,3.5367,3.5406,3.5408,3.5411,3.5413,3.5359,3.5355,3.5351,3.5274,0,0,3.5337,3.5335,0,0,0,0,0,0,0,0,3.5485,3.5478,3.5427,3.5427,3.5428,3.5396,3.5389,3.5336,3.5405,3.5414,3.5411,3.5414,3.5368,3.5363,3.5348,3.5271,3.5269,3.5337,3.5334,3.5332,3.5331,0,0,0,0,0,0,0,3.5488,3.548,3.5396,3.5426,3.5426,3.5434,3.543,3.5379,3.5377,3.5414,3.5416,3.5411,3.5368,3.5353,3.5347,3.5268,3.5337,3.5333,3.533,3.5328,3.5126,3.5123,0,0,0,0,0,0,3.5491,3.5483,3.5398,3.5395,3.5463,3.543,3.5425,3.5404,3.5378,3.5377,3.5409,3.5413,3.5359,3.5353,3.5346,3.5254,3.5332,3.5328,3.5325,3.5128,3.5125,3.5122,0,0,0,0,0,0,3.5494,3.5483,3.54,3.544,3.543,3.5426,3.5401,3.5401,3.5386,3.5375,3.5374,3.5393,3.5361,3.5352,3.5292,3.5252,3.5326,3.5322,3.5132,3.5127,3.5124,3.5069,0,0,0,0,0,0,3.5497,3.5484,3.5456,3.5439,3.5428,3.5348,3.5398,3.5399,3.5379,3.5384,3.536,3.5358,3.5362,3.5298,3.5287,3.5248,3.5318,3.5135,3.513,3.5125,3.5075,3.5064,3.5055,0,0,0,0,0,3.5501,3.5441,3.5454,3.5444,3.5393,3.5346,3.5339,3.5347,3.5375,3.5346,3.5339,3.5359,3.5259,3.5292,3.528,3.5238,3.5137,3.5131,3.5125,3.5079,3.5066,3.5055,0,0,0,0,0,0,3.545,3.5439,3.5453,3.5387,3.5367,3.5353,3.5316,3.5333,3.5303,3.5308,3.5317,3.5311,3.5248,3.5237,3.5274,3.5163,3.5203,3.5194,3.5172,3.5159,3.515,3.5152,3.5314,0,0,0,0,0,3.5432,3.5397,3.5388,3.533,3.532,3.532,3.5299,3.5307,3.5287,3.5278,3.5266,3.5244,3.5208,3.5183,3.5149,3.5074,3.5069,3.504,3.503,3.5022,3.5013,3.4973,3.496,3.5102,3.5102,3.5102,0,0,3.5392,3.5382,3.5359,3.532,3.5305,3.5267,3.5312,3.527,3.5241,3.5271,3.5214,3.5205,3.518,3.5113,3.5082,3.5101,3.4973,3.5014,3.5008,3.5004,3.4965,3.4952,3.494,3.5098,3.5099,3.5099,0,0,3.5301,3.529,3.5241,3.5226,3.5206,3.5206,3.5194,3.5178,3.5174,3.5117,3.5139,3.5104,3.5042,3.5023,3.5006,3.491,3.4926,3.4898,3.4846,3.4806,3.4795,3.4785,3.475,3.4737,3.489,3.489,3.489,0,3.5254,3.5199,3.5212,3.5169,3.515,3.5179,3.5128,3.5113,3.5081,3.5066,3.509,3.5013,3.4998,3.4926,3.4903,3.4889,3.4874,3.49,3.4796,3.4786,3.4777,3.4743,3.473,3.4887,3.4887,3.4888,3.4888,0,3.5142,3.5104,3.5066,3.5037,3.5015,3.4967,3.4972,3.4947,3.4958,3.4956,3.4898,3.4882,3.4845,3.4829,3.4838,3.4759,3.4772,3.4795,3.4835,3.476,3.4728,3.4716,3.4882,3.4883,3.4884,3.4885,0,0,3.5014,3.4996,3.4982,3.4969,3.4949,3.4919,3.4873,3.484,3.4818,3.4796,3.4756,3.4704,3.4726,3.4706,3.4713,3.4679,3.4603,3.4707,3.4706,3.4687,3.4515,3.4496,3.4481,3.4615,3.4613,3.4611,3.4516,0,3.4921,3.4844,3.4855,3.4779,3.4744,3.4771,3.4731,3.4714,3.4711,3.4679,3.4675,3.4638,3.467,3.4659,3.4626,3.4619,3.4568,3.4627,3.4577,3.4575,3.458,3.4465,3.4444,3.4356,3.4504,3.4502,3.4501,0,3.4802,3.4778,3.4699,3.4686,3.4672,3.4636,3.4606,3.4576,3.4557,3.4557,3.4537,3.455,3.4503,3.4546,3.448,3.4519,3.45,3.4494,3.449,3.4484,3.4532,3.4454,3.4327,3.4314,3.4482,3.4483,3.4485,0,3.4716,3.4664,3.461,3.4599,3.4582,3.4556,3.4548,3.4531,3.4511,3.4485,3.4472,3.444,3.4422,3.4396,3.44,3.4432,3.4333,3.4376,3.433,3.433,3.4306,3.4307,3.4173,3.4296,3.4297,3.4297,3.4297,0,3.4609,3.456,3.4571,3.4538,3.4483,3.4497,3.4441,3.4436,3.4422,3.4387,3.4409,3.4375,3.4384,3.435,3.4353,3.4298,3.4289,3.4287,3.4288,3.4284,3.4284,3.427,3.4276,3.4293,3.4294,3.4295,3.4295,0,3.4503,3.4509,3.4452,3.4442,3.4439,3.4399,3.4389,3.4357,3.4358,3.4313,3.4303,3.4303,3.4264,3.4267,3.4223,3.4225,3.4157,3.4166,3.4164,3.4165,3.4118,3.4122,3.3969,3.3949,3.4087,3.4085,3.4084,0,3.4434,3.4397,3.4384,3.4363,3.4354,3.432,3.43,3.4312,3.429,3.4267,3.4237,3.4202,3.4174,3.4111,3.4105,3.4072,3.408,3.4028,3.4074,3.4072,3.4077,3.4079,3.4075,3.4018,3.4017,3.4016,3.4015,0,3.431,3.4316,3.4287,3.426,3.4237,3.4215,3.4196,3.4177,3.4187,3.4161,3.4124,3.4103,3.406,3.4023,3.3992,3.3982,3.3999,3.4001,3.3988,3.3983,3.3983,3.3981,3.4137,3.4003,3.4005,3.4005,3.4006,3.4006,3.4219,3.4188,3.4174,3.4142,3.413,3.4112,3.4082,3.4079,3.4049,3.4016,3.4025,3.3982,3.3965,3.3925,3.3912,3.3878,3.3896,3.3878,3.3873,3.3868,3.3862,3.399,3.3872,3.3873,3.3873,3.3873,3.3873,0,3.4096,3.4089,3.406,3.4034,3.4008,3.4031,3.4011,3.3987,3.395,3.3934,3.3907,3.3864,3.3829,3.3822,3.3789,3.3763,3.377,3.3754,3.3755,3.3752,3.3848,3.3862,3.3749,3.3749,3.3749,3.3749,3.3749,3.3749,3.4028,3.3977,3.3981,3.3923,3.3916,3.3876,3.3863,3.3846,3.3833,3.3785,3.3758,3.3754,3.3741,3.3708,3.3677,3.3675,3.3661,3.3642,3.3643,3.3733,3.3745,3.3757,3.377,3.3639,3.3639,3.3549,3.3549,3.3548]}]]